Weather History for Norwood, MA

Change the Weather History Date:

Saturday, November 3, 2012

  Actual Average Record
Temperature  
Mean Temperature 50 °F -  
Max Temperature 55 °F 53 °F 75 °F (2003)
Min Temperature 44 °F 32 °F 18 °F (2010)
Degree Days  
Heating Degree Days 16    
Moisture  
Dew Point 32 °F    
Average Humidity 56    
Maximum Humidity 68    
Minimum Humidity 43    
Precipitation  
Precipitation 0.00 in - - ()
Sea Level Pressure  
Sea Level Pressure 29.70 in    
Wind  
Wind Speed 8 mph (WNW)    
Max Wind Speed 14 mph    
Max Gust Speed 22 mph    
Visibility 10 miles    
Events      
Averages and records for this station are not official NWS values.
T = Trace of Precipitation, MM = Missing Value Source: NWS Daily Summary

Daily Weather History Graph

Daily Weather History Graph

Search for Another Location

Airport:

Trip Planner

Search our weather history database for the weather conditions in past years. The results will help you decide how hot, cold, wet, or windy it might be!

Date:

Astronomy

Nov. 03, 2012 Rise Set
Actual Time 7:20 AM EDT 5:35 PM EDT
Civil Twilight 6:51 AM EDT 6:04 PM EDT
Nautical Twilight 6:18 AM EDT 6:37 PM EDT
Astronomical Twilight 5:45 AM EDT 7:10 PM EDT
Moon 9:11 PM EDT (11/3) 11:24 AM EDT (11/3)
Length of Visible Light 11h 13m
Length of Day
10h 14m
Waning Gibbous, 80% of the Moon is Illuminated
Nov 3
Waning Gibbous
Nov 6
Last Quarter
Nov 13
New
Nov 20
First Quarter
Nov 28
Full

Hourly Weather History & Observations

Time (EDT) Temp. Windchill Dew Point Humidity Pressure Visibility Wind Dir Wind Speed Gust Speed Precip Events Conditions
12:53 AM 46.0 °F 43.1 °F 34.0 °F 63% 29.62 in 10.0 mi West 5.8 mph - N/A   Mostly Cloudy
1:53 AM 46.0 °F 41.9 °F 34.0 °F 63% 29.62 in 10.0 mi WNW 8.1 mph - N/A   Overcast
2:53 AM 45.0 °F 40.1 °F 33.1 °F 63% 29.62 in 10.0 mi WNW 9.2 mph - N/A   Mostly Cloudy
3:53 AM 44.1 °F 40.8 °F 33.1 °F 65% 29.62 in 10.0 mi West 5.8 mph - N/A   Partly Cloudy
4:53 AM 44.1 °F 40.1 °F 33.1 °F 65% 29.63 in 10.0 mi WNW 6.9 mph - N/A   Overcast
5:53 AM 45.0 °F 41.2 °F 33.1 °F 63% 29.64 in 10.0 mi WNW 6.9 mph - N/A   Overcast
6:53 AM 44.1 °F 41.5 °F 34.0 °F 68% 29.65 in 10.0 mi WNW 4.6 mph - N/A   Overcast
7:53 AM 45.0 °F 42.6 °F 34.0 °F 65% 29.68 in 10.0 mi WNW 4.6 mph - N/A   Scattered Clouds
8:53 AM 46.9 °F - 34.0 °F 61% 29.70 in 10.0 mi WNW 6.9 mph - N/A   Partly Cloudy
9:53 AM 50.0 °F - 34.0 °F 54% 29.71 in 10.0 mi WNW 9.2 mph - N/A   Overcast
10:53 AM 50.0 °F - 34.0 °F 54% 29.72 in 10.0 mi NW 13.8 mph 17.3 mph N/A   Scattered Clouds
11:53 AM 53.1 °F - 34.0 °F 48% 29.71 in 10.0 mi NNW 6.9 mph - N/A   Partly Cloudy
12:53 PM 55.0 °F - 34.0 °F 45% 29.69 in 10.0 mi WNW 11.5 mph 19.6 mph N/A   Mostly Cloudy
1:53 PM 54.0 °F - 33.1 °F 45% 29.69 in 10.0 mi WNW 11.5 mph - N/A   Mostly Cloudy
2:53 PM 55.0 °F - 33.1 °F 43% 29.69 in 10.0 mi NW 9.2 mph - N/A   Partly Cloudy
3:53 PM 53.1 °F - 32.0 °F 45% 29.70 in 10.0 mi NW 9.2 mph 21.9 mph N/A   Mostly Cloudy
4:53 PM 52.0 °F - 30.9 °F 45% 29.73 in 10.0 mi NW 12.7 mph 21.9 mph N/A   Overcast
5:53 PM 48.9 °F - 30.9 °F 50% 29.75 in 10.0 mi NW 9.2 mph - N/A   Partly Cloudy
6:53 PM 46.9 °F - 30.0 °F 52% 29.77 in 10.0 mi NW 8.1 mph - N/A   Clear
7:53 PM 45.0 °F 41.8 °F 30.0 °F 56% 29.78 in 10.0 mi West 5.8 mph - N/A   Clear
8:53 PM 44.1 °F 41.5 °F 30.0 °F 58% 29.78 in 10.0 mi West 4.6 mph - N/A   Clear
9:53 PM 44.1 °F 40.8 °F 28.9 °F 55% 29.80 in 10.0 mi West 5.8 mph - N/A   Clear
10:53 PM 44.1 °F 40.1 °F 28.9 °F 55% 29.80 in 10.0 mi WNW 6.9 mph - N/A   Clear